Falls City, NE

11:43 AM CST on February 25, 2018 (GMT -0600)
Brenner

Weather History for KFNB - September, 2013

Change the Weather History Date:

Saturday, September 21, 2013

  Actual Average Record
Temperature  
Mean Temperature 60 °F -  
Max Temperature 75 °F 74 °F 98 °F (1956)
Min Temperature 45 °F 50 °F 34 °F (1983)
Degree Days  
Heating Degree Days 5    
Growing Degree Days 10 (Base 50)    
Moisture  
Dew Point 50 °F    
Average Humidity 74    
Maximum Humidity 97    
Minimum Humidity 42    
Precipitation  
Precipitation 0.00 in - - ()
Sea Level Pressure  
Sea Level Pressure 29.97 in    
Wind  
Wind Speed 3 mph (SSE)    
Max Wind Speed 7 mph    
Max Gust Speed -    
Visibility 10 miles    
Events      
Averages and records for this station are not official NWS values.
T = Trace of Precipitation, MM = Missing Value Source: NWS Daily Summary

Daily Weather History Graph

Daily Weather History Graph

Search for Another Location

Airport or City:

Trip Planner

Search our weather history database for the weather conditions in past years. The results will help you decide how hot, cold, wet, or windy it might be!

Date:

Astronomy

Sep. 21, 2013 Rise Set
Actual Time 7:09 AM CDT 7:20 PM CDT
Civil Twilight 6:42 AM CDT 7:47 PM CDT
Nautical Twilight 6:10 AM CDT 8:19 PM CDT
Astronomical Twilight 5:38 AM CDT 8:51 PM CDT
Moon 8:32 PM CDT (9/21) 9:28 AM CDT (9/21)
Length of Visible Light 13h 05m
Length of Day
12h 11m
Waning Gibbous, 94% of the Moon is Illuminated
Sep 21
Waning Gibbous
Sep 26
Last Quarter
Oct 4
New
Oct 11
First Quarter
Oct 18
Full

Hourly Weather History & Observations

Time (CDT) Temp. Dew Point Humidity Pressure Visibility Wind Dir Wind Speed Gust Speed Precip Events Conditions
12:53 AM 50.0 °F 48.0 °F 93% 30.00 in 10.0 mi Calm Calm - N/A   Clear
1:53 AM 48.9 °F 48.0 °F 97% 30.00 in 10.0 mi West 3.5 mph - N/A   Clear
2:53 AM 46.9 °F 46.0 °F 97% 30.01 in 10.0 mi North 4.6 mph - N/A   Clear
3:53 AM 46.9 °F 46.0 °F 97% 30.01 in 10.0 mi Calm Calm - N/A   Clear
4:53 AM 46.9 °F 45.0 °F 93% 30.01 in 10.0 mi Calm Calm - N/A   Clear
5:53 AM 45.0 °F 44.1 °F 97% 30.01 in 10.0 mi Calm Calm - N/A   Clear
6:53 AM 46.0 °F 45.0 °F 96% 30.03 in 10.0 mi Calm Calm - N/A   Clear
7:53 AM 46.9 °F 46.0 °F 97% 30.04 in 10.0 mi Calm Calm - N/A   Clear
8:53 AM 54.0 °F 51.1 °F 90% 30.04 in 10.0 mi Calm Calm - N/A   Clear
9:53 AM 59.0 °F 50.0 °F 72% 30.05 in 10.0 mi South 4.6 mph - N/A   Clear
10:53 AM 63.0 °F 51.1 °F 65% 30.05 in 10.0 mi SE 6.9 mph - N/A   Clear
11:53 AM 66.9 °F 46.9 °F 49% 30.02 in 10.0 mi SE 5.8 mph - N/A   Clear
12:53 PM 71.1 °F 48.9 °F 45% 30.00 in 10.0 mi ESE 6.9 mph - N/A   Clear
1:53 PM 73.0 °F 50.0 °F 44% 29.98 in 10.0 mi SSE 6.9 mph - N/A   Clear
2:53 PM 73.0 °F 48.9 °F 42% 29.96 in 10.0 mi South 4.6 mph - N/A   Clear
3:53 PM 75.0 °F 51.1 °F 43% 29.93 in 10.0 mi SE 4.6 mph - N/A   Clear
4:53 PM 75.0 °F 52.0 °F 44% 29.91 in 10.0 mi SE 6.9 mph - N/A   Clear
5:53 PM 73.0 °F 55.0 °F 53% 29.90 in 10.0 mi SSE 5.8 mph - N/A   Clear
6:53 PM 68.0 °F 57.0 °F 68% 29.89 in 10.0 mi SE 4.6 mph - N/A   Clear
7:53 PM 63.0 °F 54.0 °F 72% 29.89 in 10.0 mi SE 4.6 mph - N/A   Clear
8:53 PM 57.9 °F 53.1 °F 84% 29.90 in 10.0 mi SE 4.6 mph - N/A   Clear
9:53 PM 57.9 °F 52.0 °F 81% 29.90 in 10.0 mi SSE 5.8 mph - N/A   Clear
10:53 PM 57.0 °F 52.0 °F 83% 29.90 in 10.0 mi SSE 5.8 mph - N/A   Clear
11:53 PM 59.0 °F 51.1 °F 75% 29.91 in 10.0 mi South 5.8 mph - N/A   Clear